DKH1242 ZYBS-ZSSS

Flight info

Callsign DKH1242
Flight time N/A
Altitude 30100
Route NUBKI A588 BIDIB A345 DDG H114 DONVO A326 SURAK G455 MATNU W115 PINOT W11 PUD
Aircraft A321/M-SDE3FGHIRWY/LB1

Departure

Time 2026-04-29 07:43
Airport Changbaishan Airport (ZYBS)

Arrival

Time N/A
Airport Shanghai Hongqiao International Airport (ZSSS)
Time Latitude Longitude Altitude Speed Heading
2026-04-29 07:40 42.05813 127.60334 2908 ft 17 kts 185°
2026-04-29 07:40 42.05685 127.60320 2908 ft 20 kts 184°
2026-04-29 07:41 42.05566 127.60306 2908 ft 10 kts 186°
2026-04-29 07:41 42.05519 127.60246 2908 ft 11 kts 231°
2026-04-29 07:41 42.05528 127.60177 2908 ft 8 kts 304°
2026-04-29 07:41 42.05565 127.60105 2908 ft 11 kts 323°
2026-04-29 07:42 42.05651 127.60105 2908 ft 14 kts
2026-04-29 07:42 42.05807 127.60123 2908 ft 46 kts
2026-04-29 07:42 42.06378 127.60187 2909 ft 115 kts
2026-04-29 07:42 42.07376 127.60304 2910 ft 171 kts
2026-04-29 07:43 42.08648 127.60439 3368 ft 185 kts
2026-04-29 07:43 42.09897 127.60535 4095 ft 181 kts 355°
2026-04-29 07:43 42.11020 127.60055 4839 ft 168 kts 310°
2026-04-29 07:43 42.11521 127.58689 5578 ft 164 kts 277°
2026-04-29 07:44 42.11438 127.57166 6321 ft 163 kts 264°
2026-04-29 07:44 42.11295 127.55664 7054 ft 160 kts 266°
2026-04-29 07:44 42.11166 127.54199 7771 ft 154 kts 268°
2026-04-29 07:44 42.11044 127.52788 8329 ft 154 kts 268°
2026-04-29 07:45 42.10921 127.51309 8684 ft 161 kts 270°
2026-04-29 07:45 42.10799 127.49828 9187 ft 162 kts 270°
2026-04-29 07:45 42.10675 127.48293 9588 ft 168 kts 269°
2026-04-29 07:45 42.10545 127.46650 9775 ft 187 kts 268°
2026-04-29 07:46 42.10401 127.44802 9919 ft 210 kts 268°
2026-04-29 07:46 42.10237 127.42754 10055 ft 230 kts 268°
2026-04-29 07:46 42.10058 127.40543 10193 ft 245 kts 268°
2026-04-29 07:46 42.09864 127.38160 10278 ft 268 kts 268°
2026-04-29 07:47 42.09651 127.35553 10440 ft 291 kts 267°
2026-04-29 07:47 42.09424 127.32778 10593 ft 313 kts 267°
2026-04-29 07:47 42.09179 127.29764 10718 ft 335 kts 267°
2026-04-29 07:47 42.08914 127.26546 10891 ft 354 kts 266°
2026-04-29 07:48 42.08634 127.23209 11050 ft 361 kts 266°
2026-04-29 07:48 42.08346 127.19847 11074 ft 362 kts 266°
2026-04-29 07:48 42.08056 127.16482 11078 ft 362 kts 266°
2026-04-29 07:48 42.07766 127.13115 11125 ft 364 kts 266°